| time (UTC) | temp F | wind direction | speed MPH | gust MPH | rain 1hr in | rain 24hr in | rain mn in | humidity % | barometer mb |
| 20260504203052 | 81 | 316 | 4.0 | 10.0 | 0.00 | 0.00 | 0.00 | 31 | 1003.7 |
| 20260504201627 | 82 | 320 | 5.0 | 15.0 | 0.00 | 0.00 | 0.00 | 30 | 1003.6 |
| 20260504200053 | 83 | 295 | 2.0 | 11.0 | 0.00 | 0.00 | 0.00 | 29 | 1003.4 |
| 20260504194557 | 84 | 187 | 4.0 | 9.0 | 0.00 | 0.00 | 0.00 | 29 | 1003.3 |
| 20260504193107 | 84 | 290 | 3.0 | 13.0 | 0.00 | 0.00 | 0.00 | 28 | 1003.2 |
| 20260504191608 | 85 | 70 | 3.0 | 11.0 | 0.00 | 0.00 | 0.00 | 28 | 1003.2 |
| 20260504190155 | 87 | 219 | 3.0 | 9.0 | 0.00 | 0.00 | 0.00 | 25 | 1003.1 |
| 20260504184555 | 85 | 317 | 4.0 | 13.0 | 0.00 | 0.00 | 0.00 | 22 | 1003.1 |
| 20260504183049 | 84 | 329 | 2.0 | 10.0 | 0.00 | 0.00 | 0.00 | 26 | 1002.9 |
| 20260504181600 | 84 | 55 | 3.0 | 11.0 | 0.00 | 0.00 | 0.00 | 24 | 1002.9 |
| 20260504174555 | 84 | 12 | 3.0 | 12.0 | 0.00 | 0.00 | 0.00 | 21 | 1003.5 |
| 20260504173057 | 83 | 312 | 5.0 | 12.0 | 0.00 | 0.00 | 0.00 | 25 | 1003.5 |
| 20260504171600 | 83 | 275 | 2.0 | 8.0 | 0.00 | 0.00 | 0.00 | 27 | 1003.6 |
| 20260504160112 | 76 | 5 | 1.0 | 3.0 | 0.00 | 0.00 | 0.00 | 39 | 1003.8 |
| 20260504150117 | 69 | 257 | 1.0 | 5.0 | 0.00 | 0.00 | 0.00 | 45 | 1003.8 |
| 20260504140127 | 61 | 294 | 1.0 | 7.0 | 0.00 | 0.00 | 0.00 | 56 | 1004.2 |
| 20260504130145 | 53 | 281 | 0.0 | 1.0 | 0.00 | 0.00 | 0.00 | 73 | 1003.5 |
| 20260504081535 | 55 | 134 | 0.0 | 1.0 | 0.00 | 0.00 | 0.00 | 58 | 1004.8 |
| 20260504044549 | 53 | 46 | 0.0 | 0.0 | 0.00 | 0.00 | 0.00 | 62 | 1008.2 |
| 20260504043058 | 53 | 46 | 0.0 | 0.0 | 0.00 | 0.00 | 0.00 | 62 | 1008.3 |
| 20260504041555 | 53 | 46 | 0.0 | 2.0 | 0.00 | 0.00 | 0.00 | 64 | 1008.4 |
| 20260504040132 | 54 | 46 | 0.0 | 2.0 | 0.00 | 0.00 | 0.00 | 63 | 1008.7 |
| 20260504034601 | 54 | 46 | 0.0 | 0.0 | 0.00 | 0.00 | 0.00 | 64 | 1008.8 |
| 20260504033100 | 54 | 46 | 0.0 | 2.0 | 0.00 | 0.00 | 0.00 | 63 | 1008.8 |
| 20260504031627 | 55 | 46 | 0.0 | 0.0 | 0.00 | 0.00 | 0.00 | 60 | 1008.7 |
| 20260504030109 | 57 | 46 | 0.0 | 0.0 | 0.00 | 0.00 | 0.00 | 59 | 1008.9 |
| 20260504024607 | 57 | 46 | 0.0 | 1.0 | 0.00 | 0.00 | 0.00 | 58 | 1009.0 |
| 20260504023112 | 58 | 46 | 0.0 | 2.0 | 0.00 | 0.00 | 0.00 | 57 | 1009.1 |
| 20260504021558 | 59 | 46 | 0.0 | 0.0 | 0.00 | 0.00 | 0.00 | 57 | 1009.3 |
| 20260504020113 | 60 | 46 | 0.0 | 0.0 | 0.00 | 0.00 | 0.00 | 50 | 1009.1 |
| 20260504014557 | 62 | 46 | 0.0 | 0.0 | 0.00 | 0.00 | 0.00 | 46 | 1009.2 |
| 20260504013109 | 64 | 46 | 0.0 | 1.0 | 0.00 | 0.00 | 0.00 | 46 | 1009.2 |
| 20260504011611 | 65 | 46 | 0.0 | 2.0 | 0.00 | 0.00 | 0.00 | 44 | 1009.4 |
| 20260504010101 | 68 | 46 | 0.0 | 2.0 | 0.00 | 0.00 | 0.00 | 41 | 1009.7 |
| 20260504004557 | 71 | 46 | 0.0 | 1.0 | 0.00 | 0.00 | 0.00 | 38 | 1009.8 |
| 20260504003110 | 72 | 46 | 0.0 | 2.0 | 0.00 | 0.00 | 0.00 | 34 | 1010.0 |
| 20260504001606 | 74 | 46 | 0.0 | 1.0 | 0.00 | 0.00 | 0.00 | 32 | 1010.1 |
| 20260504000112 | 73 | 46 | 0.0 | 1.0 | 0.00 | 0.00 | 0.00 | 32 | 1010.2 |
| 20260503234629 | 73 | 46 | 0.0 | 1.0 | 0.00 | 0.00 | 0.00 | 32 | 1010.2 |
| 20260503233115 | 74 | 46 | 1.0 | 4.0 | 0.00 | 0.00 | 0.00 | 31 | 1010.3 |
| 20260503231611 | 74 | 46 | 1.0 | 4.0 | 0.00 | 0.00 | 0.00 | 30 | 1010.4 |
| 20260503230119 | 74 | 46 | 1.0 | 5.0 | 0.00 | 0.00 | 0.00 | 31 | 1010.6 |
| 20260503224608 | 75 | 236 | 1.0 | 6.0 | 0.00 | 0.00 | 0.00 | 30 | 1010.8 |
| 20260503223117 | 75 | 314 | 1.0 | 5.0 | 0.00 | 0.00 | 0.00 | 29 | 1010.6 |
| 20260503221616 | 76 | 225 | 2.0 | 6.0 | 0.00 | 0.00 | 0.00 | 29 | 1010.8 |
| 20260503220124 | 74 | 309 | 2.0 | 8.0 | 0.00 | 0.00 | 0.00 | 30 | 1010.9 |
| 20260503214616 | 75 | 329 | 2.0 | 7.0 | 0.00 | 0.00 | 0.00 | 31 | 1010.8 |
| 20260503213109 | 76 | 40 | 2.0 | 12.0 | 0.00 | 0.00 | 0.00 | 31 | 1011.2 |
| 20260503211622 | 77 | 5 | 5.0 | 11.0 | 0.00 | 0.00 | 0.00 | 28 | 1011.3 |
| 20260503210132 | 77 | 360 | 3.0 | 7.0 | 0.00 | 0.00 | 0.00 | 29 | 1011.7 |